Weather History for KCLK - February, 2013

Change the Weather History Date:

Tuesday, February 12, 2013

  Actual Average Record
Temperature  
Mean Temperature 36 °F -  
Max Temperature 39 °F - - ()
Min Temperature 32 °F - - ()
Degree Days  
Heating Degree Days 30    
Moisture  
Dew Point 29 °F    
Average Humidity 85    
Maximum Humidity 100    
Minimum Humidity 52    
Precipitation  
Precipitation 0.14 in - - ()
Sea Level Pressure  
Sea Level Pressure 30.03 in    
Wind  
Wind Speed 11 mph (NNE)    
Max Wind Speed 17 mph    
Max Gust Speed 23 mph    
Visibility 6 miles    
Events Rain , Snow    
T = Trace of Precipitation, MM = Missing Value Source: NWS Daily Summary

Daily Weather History Graph

Daily Weather History Graph

Search for Another Location

Airport or City:

Trip Planner

Search our weather history database for the weather conditions in past years. The results will help you decide how hot, cold, wet, or windy it might be!

Date:

Astronomy

Feb. 12, 2013 Rise Set
Actual Time 7:25 AM CST 6:15 PM CST
Civil Twilight 6:59 AM CST 6:41 PM CST
Nautical Twilight 6:29 AM CST 7:11 PM CST
Astronomical Twilight 5:59 AM CST 7:40 PM CST
Moon 8:30 AM CST (2/12) 9:08 PM CST (2/12)
Length of Visible Light 11h 42m
Length of Day
10h 49m
Waxing Crescent, 7% of the Moon is Illuminated
Feb 12
Waxing Crescent
Feb 17
First Quarter
Feb 25
Full
Mar 4
Last Quarter
Mar 11
New

Hourly Weather History & Observations

Time (CST) Temp. Windchill Dew Point Humidity Pressure Visibility Wind Dir Wind Speed Gust Speed Precip Events Conditions
12:15 AM 39.2 °F 32.5 °F 23.0 °F 52% 30.06 in 10.0 mi ENE 10.4 mph - N/A   Mostly Cloudy
12:35 AM 39.2 °F 33.0 °F 23.0 °F 52% 30.07 in 10.0 mi ENE 9.2 mph - N/A   Mostly Cloudy
12:55 AM 39.2 °F 32.5 °F 23.0 °F 52% 30.06 in 10.0 mi NE 10.4 mph - N/A   Scattered Clouds
1:15 AM 39.2 °F 33.0 °F 23.0 °F 52% 30.05 in 10.0 mi ENE 9.2 mph - N/A   Scattered Clouds
1:35 AM 37.4 °F 31.4 °F 23.0 °F 56% 30.05 in 10.0 mi ENE 8.1 mph - N/A   Scattered Clouds
1:55 AM 37.4 °F 30.8 °F 23.0 °F 56% 30.05 in 10.0 mi NE 9.2 mph - N/A   Clear
2:15 AM 35.6 °F 28.6 °F 23.0 °F 60% 30.04 in 10.0 mi NE 9.2 mph - N/A   Clear
2:35 AM 35.6 °F 28.6 °F 23.0 °F 60% 30.05 in 10.0 mi NNE 9.2 mph - N/A   Scattered Clouds
2:55 AM 37.4 °F 30.3 °F 23.0 °F 56% 30.06 in 10.0 mi North 10.4 mph - N/A   Mostly Cloudy
3:15 AM 37.4 °F 29.8 °F 23.0 °F 56% 30.05 in 10.0 mi NNE 11.5 mph - N/A   Mostly Cloudy
3:35 AM 37.4 °F 29.3 °F 23.0 °F 56% 30.05 in 10.0 mi NE 12.7 mph - N/A   Mostly Cloudy
3:55 AM 37.4 °F 28.9 °F 21.2 °F 52% 30.04 in 10.0 mi NE 13.8 mph - N/A   Overcast
4:15 AM 37.4 °F 29.3 °F 23.0 °F 56% 30.02 in 10.0 mi NE 12.7 mph - N/A   Overcast
4:35 AM 37.4 °F 29.3 °F 21.2 °F 52% 30.02 in 10.0 mi NE 12.7 mph - N/A   Mostly Cloudy
5:15 AM 37.4 °F 28.5 °F 21.2 °F 52% 30.01 in 10.0 mi NE 15.0 mph - N/A   Overcast
5:35 AM 37.4 °F 30.3 °F 23.0 °F 56% 30.00 in 10.0 mi NE 10.4 mph - N/A Rain Light Rain
5:55 AM 35.6 °F 25.5 °F 26.6 °F 70% 30.01 in 5.0 mi ENE 17.3 mph - N/A Rain Rain
6:15 AM 35.6 °F 27.5 °F 28.4 °F 75% 30.00 in 7.0 mi ENE 11.5 mph - N/A Snow Light Snow
6:35 AM 35.6 °F 27.5 °F 28.4 °F 75% 30.00 in 10.0 mi NE 11.5 mph - 0.01 in Rain Light Rain
6:55 AM 35.6 °F 27.5 °F 28.4 °F 75% 30.00 in 10.0 mi NE 11.5 mph - 0.02 in Rain Light Rain
7:15 AM 35.6 °F 27.1 °F 28.4 °F 75% 30.01 in 10.0 mi NE 12.7 mph 17.3 mph N/A Rain Light Rain
7:35 AM 35.6 °F 25.9 °F 30.2 °F 81% 30.01 in 10.0 mi ENE 16.1 mph - N/A Rain Light Rain
7:55 AM 35.6 °F 28.0 °F 32.0 °F 87% 30.04 in 10.0 mi East 10.4 mph - 0.01 in Rain Light Rain
8:15 AM 32.0 °F 23.6 °F 30.2 °F 93% 30.04 in 1.5 mi NE 10.4 mph - 0.02 in Snow Light Snow
8:35 AM 32.0 °F 23.6 °F 32.0 °F 100% 30.06 in 2.5 mi NNE 10.4 mph - 0.03 in Snow Light Snow
8:55 AM 32.0 °F 24.8 °F 32.0 °F 100% 30.07 in 2.5 mi North 8.1 mph - 0.04 in Snow Light Snow
9:15 AM 32.0 °F 23.0 °F 32.0 °F 100% 30.07 in 0.5 mi North 11.5 mph - 0.02 in Snow Snow
9:35 AM 32.0 °F 23.6 °F 32.0 °F 100% 30.07 in 0.8 mi North 10.4 mph - 0.04 in Snow Light Snow
9:55 AM 32.0 °F 23.0 °F 30.2 °F 93% 30.05 in 1.0 mi NNE 11.5 mph - 0.05 in Snow Light Snow
10:15 AM 32.0 °F 22.5 °F 30.2 °F 93% 30.03 in 0.5 mi NNE 12.7 mph - N/A Snow Snow
10:35 AM 32.0 °F 22.1 °F 30.2 °F 93% 30.03 in 1.5 mi NNE 13.8 mph - N/A Snow Light Snow
10:55 AM 32.0 °F 22.5 °F 30.2 °F 93% 30.03 in 1.5 mi NNE 12.7 mph - N/A Snow Light Snow
11:15 AM 32.0 °F 22.5 °F 30.2 °F 93% 30.03 in 1.2 mi NNE 12.7 mph - N/A Snow Light Snow
11:35 AM 32.0 °F 22.5 °F 30.2 °F 93% 30.03 in 1.0 mi NE 12.7 mph - N/A Snow Light Snow
11:55 AM 32.0 °F 23.0 °F 30.2 °F 93% 30.02 in 1.5 mi NE 11.5 mph - N/A Snow Light Snow
12:15 PM 32.0 °F 24.2 °F 30.2 °F 93% 30.02 in 1.0 mi NE 9.2 mph - N/A Snow Light Snow
12:35 PM 32.0 °F 24.2 °F 30.2 °F 93% 30.00 in 1.2 mi NE 9.2 mph - N/A Snow Light Snow
12:55 PM 32.0 °F 21.2 °F 32.0 °F 100% 30.00 in 0.8 mi NE 16.1 mph 21.9 mph N/A Snow Light Snow
1:15 PM 32.0 °F 20.8 °F 32.0 °F 100% 29.99 in 0.5 mi NNE 17.3 mph 23.0 mph N/A Snow Snow
1:35 PM 32.0 °F 22.1 °F 32.0 °F 100% 29.99 in 0.8 mi NE 13.8 mph - N/A Snow Light Snow
1:55 PM 32.0 °F 21.2 °F 32.0 °F 100% 29.99 in 2.0 mi NE 16.1 mph - N/A Snow Light Snow
2:15 PM 33.8 °F 23.2 °F 32.0 °F 93% 29.99 in 4.0 mi NE 17.3 mph - N/A Snow Light Snow
2:35 PM 32.0 °F 22.1 °F 32.0 °F 100% 29.99 in 2.0 mi NE 13.8 mph - N/A Snow Light Snow
2:55 PM 32.0 °F 22.5 °F 32.0 °F 100% 30.00 in 2.0 mi NE 12.7 mph - N/A Snow Light Snow
3:15 PM 32.0 °F 23.0 °F 32.0 °F 100% 30.00 in 1.5 mi NE 11.5 mph - N/A Snow Light Snow
3:35 PM 32.0 °F 23.6 °F 32.0 °F 100% 30.00 in 1.5 mi North 10.4 mph - 0.01 in Snow Light Snow
4:15 PM 32.0 °F 24.8 °F 32.0 °F 100% 30.00 in 1.0 mi NNW 8.1 mph - 0.01 in Snow Light Snow
4:35 PM 32.0 °F 24.8 °F 32.0 °F 100% 30.01 in 1.0 mi NNW 8.1 mph - 0.01 in Snow Light Snow
4:55 PM 32.0 °F 23.6 °F 32.0 °F 100% 30.01 in 1.8 mi NNW 10.4 mph - 0.01 in Snow Light Snow
5:15 PM 32.0 °F 23.6 °F 32.0 °F 100% 30.01 in 1.2 mi NNW 10.4 mph - N/A Snow Light Snow
5:35 PM 32.0 °F 23.0 °F 32.0 °F 100% 30.01 in 1.5 mi NNW 11.5 mph - N/A Snow Light Snow
5:55 PM 32.0 °F 23.6 °F 32.0 °F 100% 30.02 in 2.5 mi NNW 10.4 mph - N/A Snow Light Snow
6:15 PM 32.0 °F 23.0 °F 32.0 °F 100% 30.02 in 3.0 mi North 11.5 mph - N/A Snow Light Snow
6:35 PM 32.0 °F 23.0 °F 32.0 °F 100% 30.02 in 5.0 mi North 11.5 mph - N/A Snow Light Snow
6:55 PM 32.0 °F 23.6 °F 32.0 °F 100% 30.02 in 5.0 mi North 10.4 mph - N/A Snow Light Snow
7:15 PM 32.0 °F 24.8 °F 32.0 °F 100% 30.03 in 7.0 mi North 8.1 mph - N/A Snow Light Snow
7:35 PM 32.0 °F 24.8 °F 32.0 °F 100% 30.04 in 7.0 mi NNW 8.1 mph - N/A   Overcast
7:55 PM 32.0 °F 26.4 °F 30.2 °F 93% 30.04 in 7.0 mi NNW 5.8 mph - N/A   Mostly Cloudy
8:35 PM 32.0 °F 26.4 °F 30.2 °F 93% 30.05 in 7.0 mi NNW 5.8 mph - N/A   Mostly Cloudy
8:55 PM 32.0 °F 26.4 °F 30.2 °F 93% 30.05 in 10.0 mi NNW 5.8 mph - N/A   Scattered Clouds
9:15 PM 32.0 °F 26.4 °F 30.2 °F 93% 30.05 in 10.0 mi North 5.8 mph - N/A   Clear
9:35 PM 32.0 °F 25.6 °F 30.2 °F 93% 30.06 in 7.0 mi NNW 6.9 mph - N/A   Clear
9:55 PM 32.0 °F 25.6 °F 30.2 °F 93% 30.06 in 7.0 mi NNW 6.9 mph - N/A   Mostly Cloudy
10:15 PM 32.0 °F 24.8 °F 30.2 °F 93% 30.06 in 10.0 mi NNW 8.1 mph - N/A   Overcast
10:35 PM 32.0 °F 26.4 °F 30.2 °F 93% 30.06 in 10.0 mi NNW 5.8 mph - N/A   Overcast
10:55 PM 32.0 °F 26.4 °F 30.2 °F 93% 30.07 in 10.0 mi WNW 5.8 mph - N/A   Overcast
11:15 PM 32.0 °F 28.7 °F 32.0 °F 100% 30.07 in 10.0 mi West 3.5 mph - N/A   Overcast
11:35 PM 32.0 °F 27.5 °F 30.2 °F 93% 30.07 in 7.0 mi NW 4.6 mph - N/A   Overcast
11:55 PM 32.0 °F 27.5 °F 30.2 °F 93% 30.07 in 7.0 mi WNW 4.6 mph - N/A   Overcast